This is the latest recevied weather packets stored in our database for station/object WD9EKA. If no packets are shown the sender has not sent any weather packets the latest 10 day(s).
| Time | Temp. | Humidity | Pressure | Rain* | Wind** | Luminosity | Snow |
|---|---|---|---|---|---|---|---|
| 1778222494 | 11.67° C | 64% | 1009.4 hPa | 0 mm | - | - | - |
| 1778222177 | 11.67° C | 65% | 1009.3 hPa | 0 mm | - | - | - |
| 1778221534 | 11.67° C | 65% | 1009.5 hPa | 0 mm | - | - | - |
| 1778221217 | 11.67° C | 64% | 1009.7 hPa | 0 mm | - | - | - |
| 1778220896 | 12.22° C | 63% | 1009.5 hPa | 0 mm | - | - | - |
| 1778220576 | 12.22° C | 62% | 1009.6 hPa | 0 mm | - | - | - |
| 1778220214 | 12.22° C | 61% | 1009.6 hPa | 0 mm | - | - | - |
| 1778219854 | 12.22° C | 61% | 1009.4 hPa | 0 mm | - | - | - |
| 1778219494 | 12.22° C | 63% | 1009.5 hPa | 0 mm | - | - | - |
| 1778219134 | 12.78° C | 62% | 1009.6 hPa | 0 mm | - | - | - |
| 1778218414 | 12.78° C | 62% | 1009.4 hPa | 0 mm | - | - | - |
| 1778218054 | 12.78° C | 60% | 1009.3 hPa | 0 mm | - | - | - |
| 1778217694 | 12.78° C | 62% | 1009.6 hPa | 0 mm | - | - | - |
| 1778217333 | 12.78° C | 62% | 1009.5 hPa | 0 mm | - | - | - |
| 1778216974 | 12.78° C | 63% | 1009.5 hPa | 0 mm | - | - | - |
| 1778216614 | 12.22° C | 64% | 1009.4 hPa | 0 mm | - | - | - |
| 1778216254 | 12.22° C | 65% | 1009.5 hPa | 0 mm | - | - | - |
| 1778215894 | 12.22° C | 69% | 1009.4 hPa | 0 mm | - | - | - |
| 1778215533 | 12.22° C | 67% | 1009.5 hPa | 0 mm | - | - | - |
| 1778215174 | 11.67° C | 67% | 1009.4 hPa | 0 mm | - | - | - |
| 1778214814 | 12.22° C | 68% | 1009.6 hPa | 0 mm | - | - | - |
| 1778214454 | 11.67° C | 68% | 1009.3 hPa | 0 mm | - | - | - |
| 1778214094 | 11.67° C | 67% | 1009.4 hPa | 0 mm | - | - | - |
| 1778213734 | 11.67° C | 69% | 1009.4 hPa | 0 mm | - | - | - |
| 1778213014 | 11.67° C | 68% | 1009.4 hPa | 0 mm | - | - | - |
* Rain latest hour (hover to see other rain measurements)
** Current wind speed in m/s (hover to see current wind gust speed)